EHI
0 0 0 0 0 0 1 0 0 0 1 2 2 1 0 0 0 0 0 0 0 0 0 0 0 0 0 0 1 2 2 1 1 1 0 0 0 0 0 0 0 0 0
0 0 0 0 0 1 1 0 0 0 0 1 1 0 0 0 0 0 0 0 0 0 0 0 0 0 0 0 0 1 1 0 0 0 0 0 0 0 0 0 0 0 0
0 0 0 1 1 1 1 0 0 0 0 0 0 0 0 0 0 0 0 0 0 0 0 0 0 0 0 0 0 0 0 0 0 0 0 0 0 0 0 0 0 0 0
0 0 1 2 1 1 1 0 0 0 0 0 0 0 0 0 0 0 0 0 0 0 0 0 0 0 0 0 0 0 0 0 1 1 0 0 0 0 0 0 0 0 0
0 0 1 2 1 1 0 0 0 0 0 0 0 0 0 0 0 0 0 0 0 0 0 0 0 0 0 0 0 1 1 1 2 1 0 0 0 0 0 0 0 0 0
0 0 0 1 1 0 0 0 0 0 0 0 0 0 0 0 0 0 0 0 0 0 0 0 0 0 0 0 0 1 1 1 1 1 0 0 0 0 0 0 0 0 0
0 0 1 1 1 0 0 0 0 0 0 0 0 0 0 0 0 0 0 0 0 0 0 0 0 0 0 0 0 0 1 1 1 0 0 0 1 1 1 0 0 0 0
0 0 1 1 1 0 0 0 0 0 0 0 0 0 0 0 0 0 0 0 0 0 0 0 0 0 0 0 0 0 0 1 0 0 0 0 1 1 1 0 1 1 0
1 1 1 0 0 0 0 0 0 0 0 0 0 0 0 0 0 0 0 0 0 0 0 0 0 0 0 0 0 0 0 0 0 0 0 0 1 1 0 0 1 1 1
0 0 0 0 0 0 0 0 0 0 0 0 0 0 0 0 0 0 0 0 0 0 0 0 0 0 0 0 0 0 0 0 0 0 0 0 0 0 0 0 1 1 0
0 0 0 0 0 0 0 0 0 0 0 0 0 0 1 1 0 0 0 0 0 0 0 0 0 0 0 0 0 0 0 0 0 0 0 0 0 0 0 0 0 0 0
0 0 0 0 0 0 0 0 0 0 0 0 0 1 2 2 1 1 1 1 0 0 0 0 0 0 0 0 0 1 0 0 0 0 0 0 0 0 0 0 0 0 1
0 0 1 1 1 0 0 0 0 0 0 0 0 1 2 2 2 2 2 1 0 0 0 0 0 0 0 0 0 0 0 0 0 0 0 0 0 0 0 1 2 2 2
1 1 2 2 2 1 1 0 0 0 0 0 0 0 1 1 1 1 1 1 0 0 0 0 0 0 0 0 0 0 0 0 0 0 0 0 0 0 1 2 2 3 3
2 1 2 3 3 3 2 1 0 0 0 0 0 0 0 0 1 1 1 0 0 0 0 1 0 0 0 0 0 0 0 0 0 0 0 0 1 1 1 1 2 3 3
3 3 3 4 3 3 3 2 1 1 0 0 0 1 1 1 2 4 3 1 0 1 1 1 1 0 0 0 0 0 0 0 0 1 1 1 2 1 1 1 1 2 3
5 5 5 4 4 3 3 3 2 1 0 0 0 1 2 3 4 5 5 3 2 2 3 3 2 2 1 1 1 1 1 1 1 2 2 1 1 2 2 2 2 2 3
6 6 5 3 3 4 4 4 3 3 3 2 2 2 4 5 5 5 5 5 4 4 5 4 3 4 3 3 3 3 2 2 2 2 2 1 1 1 3 5 4 3 3
7 7 5 4 4 4 5 5 5 5 6 6 4 4 5 5 5 4 4 4 4 4 4 3 3 3 4 5 4 3 2 2 1 1 1 1 1 1 2 5 6 5 4
9 9 9 8 7 5 5 6 7 6 6 6 5 5 5 4 3 3 3 2 2 2 1 1 1 3 5 6 3 2 1 1 0 0 0 1 1 1 2 3 4 3 3
14 14 14 14 12 9 7 7 6 5 4 4 4 4 4 3 2 2 2 3 3 2 2 2 3 5 6 6 4 1 0 0 0 0 0 1 2 2 2 2 2 2 1
20 20 19 18 17 14 10 8 6 4 3 3 3 3 2 1 1 2 3 4 4 5 6 7 9 9 9 9 8 4 1 1 1 0 0 1 1 1 1 1 1 1 0
26 24 21 21 21 19 15 10 7 5 3 2 2 3 3 2 2 3 4 6 7 8 9 12 12 13 13 13 12 9 4 2 1 1 1 1 1 0 0 0 0 1 1
26 24 23 25 26 26 22 16 12 9 4 3 3 3 4 3 3 4 7 11 13 13 14 14 13 14 16 15 15 13 9 5 4 3 2 1 1 2 1 1 1 2 4
23 25 26 28 29 31 28 23 19 13 7 6 6 6 6 5 4 5 7 12 14 15 16 15 13 15 16 15 15 15 12 9 7 6 3 2 2 2 2 2 2 4 6
22 26 28 29 31 33 31 26 23 17 10 9 9 9 8 6 4 5 7 9 11 13 15 17 15 15 15 14 14 13 13 11 10 8 5 3 2 2 3 3 3 5 6
Wind_Speed
5 8 10 10 12 13 14 14 14 15 15 15 15 15 14 14 14 14 14 14 13 13 13 13 12 12 11 11 11 11 11 12 12 12 12 12 12 12 11 11 9 11 13
8 10 11 10 12 13 13 14 14 14 14 14 14 14 14 14 14 13 13 13 13 13 12 12 12 11 11 11 11 11 10 10 11 11 11 11 11 11 10 7 6 10 12
9 11 11 12 12 13 13 13 13 13 13 13 13 13 13 13 13 12 12 12 12 12 11 11 11 11 10 10 10 10 10 10 10 9 8 8 11 10 9 9 10 11 11
10 10 11 13 12 13 12 12 12 13 13 12 12 12 12 12 11 11 11 11 11 10 10 10 10 10 10 10 10 9 10 9 8 7 6 7 9 11 8 8 9 9 9
11 10 12 12 12 13 12 12 12 12 12 11 11 12 12 11 10 10 10 10 10 9 9 9 9 9 9 9 9 9 9 8 6 6 6 6 7 10 8 7 8 8 8
12 11 13 11 12 12 11 11 11 11 11 11 11 11 11 10 10 9 9 9 9 8 8 8 8 8 8 8 8 8 8 7 7 5 5 5 7 9 8 7 8 8 8
11 11 13 11 11 11 10 10 10 10 10 10 10 10 10 9 9 8 8 8 8 7 7 7 7 7 7 7 7 7 6 5 3 4 5 5 7 9 7 7 7 7 7
11 11 13 12 11 10 9 9 9 10 10 9 9 9 9 9 8 8 7 8 8 7 7 7 7 6 6 6 6 6 6 6 4 4 4 5 9 8 7 7 7 7 7
10 10 10 11 11 9 8 7 8 9 9 9 8 8 8 8 8 7 7 6 7 6 6 6 6 6 6 6 6 6 5 5 4 3 3 4 9 7 7 7 7 6 7
8 9 9 8 9 8 9 8 7 8 8 8 7 7 7 8 8 7 7 6 6 6 5 5 5 6 5 6 5 5 5 7 4 4 3 6 9 7 7 8 8 7 7
8 7 8 9 8 6 7 9 8 8 8 7 7 7 6 5 6 6 5 6 5 5 5 5 5 5 6 7 7 6 6 4 3 2 2 8 7 7 7 8 8 8 7
10 9 7 7 7 7 5 6 4 5 6 4 4 5 4 3 2 3 7 6 5 5 5 6 6 7 8 6 8 9 4 4 3 3 4 9 7 7 7 7 8 8 9
10 9 9 8 6 6 4 4 3 3 4 4 4 3 2 2 3 3 3 5 5 6 5 7 7 5 4 2 3 4 3 3 2 2 5 9 7 7 8 8 9 9 10
10 9 9 8 6 5 4 4 4 3 3 3 4 4 3 2 1 2 1 2 3 2 2 2 3 3 3 3 4 3 4 4 2 2 4 8 7 8 9 9 10 10 10
10 9 9 8 7 6 4 4 4 3 3 4 3 3 3 2 2 2 2 1 2 2 3 2 2 3 3 4 4 4 4 4 3 4 3 9 9 9 10 10 11 11 11
10 10 9 9 8 7 5 4 3 4 3 3 4 4 4 2 2 2 2 2 2 2 2 2 3 3 3 2 4 3 4 4 4 5 4 7 11 11 11 11 12 12 12
10 10 9 9 9 8 7 6 4 4 5 4 3 4 4 4 3 3 2 2 2 2 2 3 3 3 3 4 4 4 4 5 4 5 5 4 7 12 12 11 11 12 13
10 10 10 9 9 8 6 5 4 4 4 4 4 4 5 4 4 3 3 3 2 3 2 2 3 2 2 3 3 4 4 4 5 6 6 6 5 5 10 13 12 12 13
11 11 10 9 9 9 8 6 5 4 4 4 4 4 4 5 5 5 3 2 3 3 2 3 2 2 3 3 4 4 5 4 4 6 6 7 6 6 5 9 13 12 14
11 11 11 10 9 8 7 6 5 5 5 5 4 4 5 5 5 5 4 3 4 3 3 3 3 3 4 4 4 3 4 4 5 5 6 6 5 7 7 6 7 10 14
12 12 11 11 10 8 7 7 6 6 5 5 5 5 5 5 5 4 3 3 4 4 4 4 3 4 4 3 4 3 4 5 4 4 4 4 4 4 4 5 5 4 6
14 13 12 12 11 11 8 6 5 4 5 5 4 4 6 6 5 5 5 4 4 4 5 4 4 4 3 3 3 3 3 4 4 3 3 3 3 3 4 4 4 4 4
15 14 12 12 12 11 10 7 6 5 5 5 6 5 6 6 6 5 5 5 4 6 5 5 5 5 4 3 3 3 3 1 1 3 3 2 2 2 3 3 4 3 3
15 14 13 12 12 11 11 9 9 7 7 6 5 5 5 6 6 6 6 5 5 5 4 6 5 5 5 4 3 4 4 3 3 1 3 3 2 2 2 3 3 2 3
15 14 13 13 12 12 11 10 10 9 7 6 5 5 5 5 6 6 5 5 5 5 5 5 4 5 5 5 4 3 4 4 5 4 3 2 2 2 1 2 2 2 2
14 14 13 13 13 12 12 11 11 10 8 7 6 6 6 5 5 6 6 5 5 5 5 5 5 6 5 5 4 4 4 4 4 4 4 4 3 2 2 1 2 1 1
Wind_Direction
113 110 114 116 114 113 117 117 119 120 121 119 118 119 120 119 117 115 114 116 116 116 115 115 115 114 114 113 113 111 109 110 110 111 112 112 112 113 115 122 135 114 115
115 114 115 116 113 114 117 117 118 118 120 120 120 122 122 120 118 117 116 115 116 115 114 115 116 115 116 116 118 116 114 113 114 116 121 119 113 112 113 111 82 103 121
116 118 122 115 114 114 116 117 120 120 120 121 121 122 121 120 119 118 117 116 117 117 115 116 117 118 119 120 121 120 118 118 121 129 150 133 118 115 114 110 106 116 122
118 118 116 116 117 118 117 118 121 122 123 125 125 124 122 120 119 119 119 118 118 118 120 121 122 123 123 124 125 123 120 119 130 167 163 121 122 118 122 122 125 128 129
118 115 111 119 121 121 120 120 121 123 124 127 128 127 127 126 125 123 123 122 121 122 123 123 125 126 128 129 128 128 126 128 157 196 114 110 111 122 132 134 135 136 136
126 124 117 121 120 120 122 123 123 123 124 126 128 129 130 129 129 128 127 124 125 128 129 128 131 132 133 131 132 135 138 151 193 139 122 132 120 131 142 144 142 140 140
126 122 121 124 121 120 121 125 127 126 127 128 130 130 131 131 130 130 130 129 130 132 134 134 138 139 137 136 140 143 147 183 207 133 138 136 115 133 148 150 150 150 148
129 126 122 126 126 127 126 123 127 127 128 128 129 131 133 135 135 135 135 134 137 139 141 143 148 153 151 147 151 153 165 216 191 156 151 132 121 149 160 158 158 159 159
132 130 131 136 135 135 130 131 130 132 132 130 131 133 135 136 137 136 136 138 141 145 150 155 157 159 157 154 158 165 179 230 229 166 163 132 133 158 167 169 169 169 169
136 135 136 139 136 150 147 146 141 140 137 134 135 136 138 144 147 147 156 144 145 148 152 157 161 164 160 160 165 168 182 222 207 179 168 124 141 165 176 181 182 182 181
149 148 147 141 144 149 149 142 153 149 146 155 151 150 169 167 156 163 138 137 153 158 163 165 160 162 171 172 172 178 205 224 183 192 157 119 157 182 192 192 191 191 192
158 157 152 150 153 157 150 145 158 159 151 169 147 159 162 145 156 147 129 154 166 171 177 173 172 185 203 181 172 194 213 211 213 199 137 139 174 199 205 202 200 200 201
158 160 161 161 162 159 151 155 158 151 147 158 153 163 154 172 170 165 152 164 176 188 192 173 192 200 193 184 191 193 199 226 218 218 144 155 187 210 214 213 210 207 207
162 165 162 160 166 168 163 157 166 164 162 157 152 189 174 182 198 148 168 169 179 181 188 198 196 191 196 196 208 209 210 230 225 220 147 165 197 214 219 219 218 216 215
170 171 165 166 168 170 173 192 169 167 171 162 168 186 199 194 194 162 177 201 216 187 186 202 207 193 203 206 214 214 225 235 243 238 170 177 201 217 224 223 223 222 222
178 176 171 177 176 180 184 191 178 179 180 184 182 180 206 209 191 202 195 203 211 212 205 203 195 203 218 221 225 228 235 230 222 238 234 187 200 215 226 228 223 222 224
182 182 180 183 182 186 193 194 189 195 189 192 182 183 205 215 204 220 215 217 210 203 201 218 208 214 223 221 224 232 234 238 233 232 241 236 210 206 216 222 221 222 224
184 184 188 192 183 186 195 200 198 203 198 199 195 191 205 214 216 226 225 222 212 221 211 207 221 222 234 249 241 238 235 226 235 235 235 233 238 225 204 208 217 221 224
188 187 189 197 190 191 191 200 212 203 208 215 206 203 202 215 215 221 227 226 225 227 225 232 207 239 235 244 242 227 238 232 233 238 242 241 233 237 234 194 206 219 225
190 190 190 192 193 194 193 197 210 211 208 213 215 210 215 217 217 227 219 216 230 223 224 229 225 232 244 244 259 254 252 243 237 239 245 239 233 232 235 233 212 211 217
191 192 194 197 189 195 198 200 200 203 209 209 215 209 216 223 218 227 240 210 229 224 232 234 233 223 234 237 251 245 231 224 231 232 240 252 241 241 245 239 242 242 210
193 194 195 197 194 198 197 203 209 216 215 214 218 207 220 221 223 218 226 231 224 227 227 232 234 250 243 221 258 264 235 194 201 210 220 223 244 243 241 236 237 234 253
194 195 196 197 196 200 197 201 199 204 220 210 210 209 217 221 223 234 230 238 235 237 226 230 233 240 249 231 237 268 279 264 216 176 198 206 216 238 248 239 234 232 237
195 192 193 193 197 197 199 208 206 209 215 216 215 211 211 218 226 226 230 231 238 244 237 235 224 242 247 246 218 236 270 312 288 234 189 173 188 218 243 253 241 216 223
193 189 189 191 196 195 200 204 210 217 219 217 213 211 221 211 219 226 225 226 230 239 240 248 246 246 244 251 248 235 231 234 249 265 253 224 208 206 213 229 238 233 218
191 190 189 189 194 194 198 203 211 218 221 221 218 215 216 211 211 215 220 225 234 240 235 237 240 235 248 256 259 251 240 242 239 248 256 245 241 234 230 244 243 218 192